Weather History for Patuxent River, MD

Change the Weather History Date:

Wednesday, November 20, 2013

  Actual Average Record
Temperature  
Mean Temperature 42 °F -  
Max Temperature 46 °F 59 °F 76 °F (1985)
Min Temperature 37 °F 42 °F 28 °F (1984)
Degree Days  
Heating Degree Days 24    
Moisture  
Dew Point 27 °F    
Average Humidity 57    
Maximum Humidity 79    
Minimum Humidity 47    
Precipitation  
Precipitation 0.00 in - - ()
Sea Level Pressure  
Sea Level Pressure 30.49 in    
Wind  
Wind Speed 13 mph (NE)    
Max Wind Speed 17 mph    
Max Gust Speed -    
Visibility 10 miles    
Events      
Averages and records for this station are not official NWS values.
T = Trace of Precipitation, MM = Missing Value Source: NWS Daily Summary

Daily Weather History Graph

Daily Weather History Graph

Search for Another Location

Airport:

Trip Planner

Search our weather history database for the weather conditions in past years. The results will help you decide how hot, cold, wet, or windy it might be!

Date:

Astronomy

Nov. 20, 2013 Rise Set
Actual Time 6:52 AM EST 4:49 PM EST
Civil Twilight 6:24 AM EST 5:18 PM EST
Nautical Twilight 5:51 AM EST 5:50 PM EST
Astronomical Twilight 5:20 AM EST 6:22 PM EST
Moon 7:30 PM EST (11/20) 9:16 AM EST (11/20)
Length of Visible Light 10h 54m
Length of Day
9h 57m
Waning Gibbous, 91% of the Moon is Illuminated
Nov 20
Waning Gibbous
Nov 25
Last Quarter
Dec 2
New
Dec 9
First Quarter
Dec 17
Full

Hourly Weather History & Observations

Time (EST) Temp. Windchill Dew Point Humidity Pressure Visibility Wind Dir Wind Speed Gust Speed Precip Events Conditions
12:52 AM 41.0 °F 32.5 °F 21.9 °F 47% 30.36 in 10.0 mi NNE 17.3 mph - N/A   Clear
1:52 AM 39.9 °F 31.8 °F 21.0 °F 47% 30.39 in 10.0 mi NNE 15.0 mph - N/A   Clear
2:52 AM 39.9 °F 32.5 °F 21.0 °F 47% 30.41 in 10.0 mi NNE 12.7 mph - N/A   Clear
3:52 AM 39.0 °F 31.0 °F 21.0 °F 49% 30.42 in 10.0 mi NE 13.8 mph - N/A   Clear
4:52 AM 37.9 °F 30.5 °F 21.9 °F 53% 30.44 in 10.0 mi NE 11.5 mph - N/A   Clear
5:06 AM 37.4 °F 28.9 °F 21.2 °F 52% 30.44 in 10.0 mi NE 13.8 mph - N/A   Mostly Cloudy
5:52 AM 37.9 °F 29.6 °F 21.9 °F 53% 30.46 in 10.0 mi NE 13.8 mph - N/A   Mostly Cloudy
6:52 AM 37.0 °F 28.5 °F 23.0 °F 57% 30.48 in 10.0 mi NE 13.8 mph - N/A   Mostly Cloudy
7:52 AM 39.0 °F 30.6 °F 24.1 °F 55% 30.50 in 10.0 mi NE 15.0 mph - N/A   Mostly Cloudy
8:52 AM 39.0 °F 31.4 °F 23.0 °F 53% 30.53 in 10.0 mi NE 12.7 mph - N/A   Mostly Cloudy
9:52 AM 42.1 °F 36.1 °F 25.0 °F 51% 30.55 in 10.0 mi NNE 10.4 mph - N/A   Mostly Cloudy
10:52 AM 42.1 °F 36.1 °F 25.0 °F 51% 30.56 in 10.0 mi North 10.4 mph - N/A   Mostly Cloudy
11:52 AM 43.0 °F 39.5 °F 27.0 °F 53% 30.53 in 10.0 mi North 5.8 mph - N/A   Scattered Clouds
12:52 PM 45.0 °F 40.1 °F 28.0 °F 52% 30.51 in 10.0 mi North 9.2 mph - N/A   Partly Cloudy
1:52 PM 46.0 °F 41.9 °F 28.9 °F 51% 30.50 in 10.0 mi NNE 8.1 mph - N/A   Partly Cloudy
2:52 PM 46.9 °F - 30.0 °F 52% 30.49 in 10.0 mi NNE 6.9 mph - N/A   Scattered Clouds
3:52 PM 46.0 °F 41.0 °F 28.9 °F 51% 30.49 in 10.0 mi NE 10.4 mph - N/A   Scattered Clouds
4:52 PM 43.0 °F 39.5 °F 28.0 °F 56% 30.50 in 10.0 mi ENE 5.8 mph - N/A   Scattered Clouds
5:52 PM 42.1 °F 35.2 °F 30.9 °F 65% 30.52 in 10.0 mi ENE 12.7 mph - N/A   Scattered Clouds
6:52 PM 42.1 °F 36.1 °F 30.9 °F 65% 30.53 in 10.0 mi East 10.4 mph - N/A   Scattered Clouds
7:52 PM 41.0 °F 34.3 °F 30.9 °F 67% 30.53 in 10.0 mi ENE 11.5 mph - N/A   Scattered Clouds
8:52 PM 41.0 °F 35.8 °F 32.0 °F 70% 30.53 in 10.0 mi ENE 8.1 mph - N/A   Scattered Clouds
9:52 PM 39.9 °F 34.5 °F 32.0 °F 73% 30.53 in 10.0 mi NE 8.1 mph - N/A   Scattered Clouds
10:52 PM 39.0 °F 33.4 °F 33.1 °F 79% 30.54 in 10.0 mi NE 8.1 mph - N/A   Scattered Clouds
11:52 PM 39.0 °F 32.8 °F 33.1 °F 79% 30.53 in 10.0 mi NE 9.2 mph - N/A   Clear